[Date Prev][Date Next][Thread Prev][Thread Next] - [Date Index][Thread Index][Author Index]

2 Line ISS Keps 5-7



ISS
1 25544U 98067A   02127.26407527  .00031401  00000-0  39952-3 0  4068
2 25544  51.6372 258.6627 0007647  41.3282  34.1138 15.59043101197642


----
Via the sarex mailing list at AMSAT.ORG courtesy of AMSAT-NA.
To unsubscribe, send "unsubscribe sarex" to Majordomo@amsat.org



AMSAT Top AMSAT Home